User: anonymous   Login
Location: Melbourne
(37.8170°S, 144.9670°E)
Time: 04:12:56
(UTC+10:00)
Language:

Cosmos 1656 Rocket - Orbit

View from above orbital plane
View from above orbital plane
View from above satellite
View from above satellite

Ground track
Ground track

The orbit data is extracted from the following two-line orbital elements,

1 15772U 85042D   15210.98273552 -.00000127  00000-0 -36239-4 0  9990
2 15772 071.1094 347.7491 0034497 030.0125 108.5625 14.21129883563672
Epoch (UTC): 29 July 2015 23:35:08
Eccentricity: 0.0034497
inclination: 71.1094°
perigee height: 797 km
apogee height: 846 km
right ascension of ascending node: 347.7491°
argument of perigee: 30.0125°
revolutions per day: 14.21129883
mean anomaly at epoch: 108.5625°
orbit number at epoch: 56367

The dashed part of the orbit path shows where the satellite is in the earth's shadow,  

DLR